Amarillo, TX

9:50 PM CDT on July 23, 2019 (GMT -0500)
Amarillo International

Weather History for KAMA - May, 2019

Change the Weather History Date:

Tuesday, May 7, 2019

  Actual Average Record
Temperature  
Mean Temperature 65 °F 63 °F  
Max Temperature 74 °F 77 °F 97 °F (1916)
Min Temperature 56 °F 49 °F 30 °F (1917)
Degree Days  
Heating Degree Days 0 4  
Month to date heating degree days 24 32  
Since 1 July heating degree days 4007 4120  
Cooling Degree Days 0 2  
Month to date cooling degree days 7 12  
Year to date cooling degree days 23 33  
Growing Degree Days 14 (Base 50)    
Moisture  
Dew Point 57 °F    
Average Humidity 77    
Maximum Humidity 90    
Minimum Humidity 64    
Precipitation  
Precipitation 0.43 in 0.05 in 2.16 in (1959)
Month to date precipitation 0.74 0.36  
Year to date precipitation 4.83 4.43  
Snow  
Snow 0.00 in 0.00 in 0.40 in (1917)
Month to date snowfall 0.0 0.1  
Since 1 July snowfall 8.1 17.7  
Snow Depth 0.00 in    
Sea Level Pressure  
Sea Level Pressure 29.77 in    
Wind  
Wind Speed 14 mph (SE)    
Max Wind Speed 43 mph    
Max Gust Speed 51 mph    
Visibility 10 miles    
Events Rain , Thunderstorm    
T = Trace of Precipitation, MM = Missing Value Source: NWS Daily Summary

Daily Weather History Graph

Daily Weather History Graph

Search for Another Location

Airport or City:

Astronomy

May. 07, 2019 Rise Set
Actual Time 6:49 AM CDT 8:37 PM CDT
Civil Twilight 6:22 AM CDT 9:05 PM CDT
Nautical Twilight 5:48 AM CDT 9:38 PM CDT
Astronomical Twilight 5:13 AM CDT 10:14 PM CDT
Moon 8:59 AM CDT (5/7) 11:37 PM CDT (5/7)
Length of Visible Light 14h 42m
Length of Day
13h 47m
Waxing Crescent, 9% of the Moon is Illuminated
May 7
Waxing Crescent
May 11
First Quarter
May 18
Full
May 26
Last Quarter
Jun 3
New

Hourly Weather History & Observations

Time (CDT) Temp. Dew Point Humidity Pressure Visibility Wind Dir Wind Speed Gust Speed Precip Events Conditions
12:53 AM 69.1 °F 53.1 °F 57% 29.74 in 10.0 mi SSE 12.7 mph - 0.00 in   Partly Cloudy
1:53 AM 64.9 °F 59.0 °F 81% 29.81 in 10.0 mi South 21.9 mph 31.1 mph 0.00 in Rain Light Rain
2:53 AM 64.0 °F 55.9 °F 75% 29.78 in 10.0 mi South 11.5 mph - 0.03 in   Mostly Cloudy
3:53 AM 64.0 °F 57.9 °F 80% 29.76 in 10.0 mi SSE 12.7 mph - N/A   Clear
4:53 AM 62.1 °F 57.9 °F 86% 29.75 in 10.0 mi South 16.1 mph - N/A   Clear
5:53 AM 61.0 °F 57.9 °F 90% 29.75 in 10.0 mi South 11.5 mph - N/A   Clear
6:53 AM 61.0 °F 57.9 °F 90% 29.76 in 10.0 mi South 23.0 mph - N/A   Clear
7:53 AM 62.1 °F 57.9 °F 86% 29.80 in 10.0 mi South 25.3 mph 29.9 mph N/A   Clear
8:31 AM 63.0 °F 59.0 °F 87% 29.95 in 10.0 mi SSE 11.5 mph - N/A   Mostly Cloudy
8:53 AM 64.9 °F 60.1 °F 84% 29.82 in 10.0 mi SE 9.2 mph - N/A   Mostly Cloudy
9:33 AM 64.0 °F 59.0 °F 84% 29.95 in 10.0 mi East 4.6 mph - N/A   Mostly Cloudy
9:53 AM 64.9 °F 59.0 °F 81% 29.83 in 10.0 mi ESE 5.8 mph - N/A   Mostly Cloudy
10:53 AM 69.1 °F 60.1 °F 73% 29.81 in 10.0 mi SSE 13.8 mph - N/A   Scattered Clouds
11:19 AM 71.1 °F 61.0 °F 70% 29.93 in 10.0 mi SE 16.1 mph - N/A   Mostly Cloudy
11:53 AM 71.1 °F 61.0 °F 70% 29.80 in 10.0 mi SSE 12.7 mph - N/A   Mostly Cloudy
12:42 PM 72.0 °F 61.0 °F 68% 29.91 in 10.0 mi SE 12.7 mph - N/A   Scattered Clouds
12:53 PM 72.0 °F 60.1 °F 66% 29.76 in 10.0 mi SE 15.0 mph - N/A   Scattered Clouds
1:53 PM 73.0 °F 60.1 °F 64% 29.75 in 10.0 mi SE 19.6 mph 29.9 mph N/A   Mostly Cloudy
2:00 PM 71.1 °F 60.1 °F 68% 29.88 in 10.0 mi SE 21.9 mph - N/A   Mostly Cloudy
2:53 PM 73.0 °F 61.0 °F 66% 29.71 in 10.0 mi SE 25.3 mph 31.1 mph N/A   Mostly Cloudy
3:01 PM 73.9 °F 62.1 °F 66% 29.84 in 10.0 mi SE 21.9 mph 31.1 mph N/A   Mostly Cloudy
3:29 PM 72.0 °F 61.0 °F 68% 29.83 in 10.0 mi SE 24.2 mph 31.1 mph N/A   Mostly Cloudy
3:53 PM 71.1 °F 61.0 °F 70% 29.68 in 10.0 mi SE 18.4 mph 28.8 mph N/A   Mostly Cloudy
4:40 PM 70.0 °F 60.1 °F 71% 29.76 in 10.0 mi SE 25.3 mph 31.1 mph N/A Thunderstorm Mostly Cloudy
4:53 PM 68.0 °F 61.0 °F 78% 29.65 in 9.0 mi SE 20.7 mph 32.2 mph 0.01 in Rain , Thunderstorm Light Rain
5:21 PM 66.9 °F 61.0 °F 81% 29.74 in 10.0 mi SE 24.2 mph 31.1 mph 0.00 in Rain Light Rain
5:53 PM 62.1 °F 57.9 °F 86% 29.69 in 10.0 mi NNW 13.8 mph 19.6 mph 0.00 in   Overcast
6:11 PM 59.0 °F 55.9 °F 90% 29.79 in 10.0 mi North 17.3 mph - N/A   Scattered Clouds
6:53 PM 59.0 °F 55.0 °F 87% 29.69 in 10.0 mi NNE 12.7 mph - N/A   Clear
7:29 PM 59.0 °F 55.9 °F 90% 29.79 in 10.0 mi ENE 6.9 mph - N/A Thunderstorm Thunderstorm
7:50 PM 60.8 °F 57.2 °F 88% 29.79 in 8.0 mi Calm Calm - 0.01 in Rain , Thunderstorm Light Rain
7:53 PM 61.0 °F 57.9 °F 90% 29.69 in 7.0 mi Calm Calm - 0.01 in Rain , Thunderstorm Light Rain
8:39 PM 60.1 °F 55.9 °F 86% 29.77 in 10.0 mi ENE 9.2 mph - 0.01 in   Mostly Cloudy
8:53 PM 60.1 °F 55.0 °F 83% 29.68 in 10.0 mi East 4.6 mph - 0.01 in   Mostly Cloudy
9:00 PM 60.1 °F 55.9 °F 86% 29.80 in 10.0 mi ESE 5.8 mph - N/A Thunderstorm Mostly Cloudy
9:09 PM 60.1 °F 55.0 °F 83% 29.81 in 3.0 mi SE 20.7 mph - 0.03 in Rain , Thunderstorm Heavy Thunderstorms and Rain
9:25 PM 57.9 °F 50.0 °F 75% 29.84 in 2.5 mi South 24.2 mph 41.4 mph 0.33 in Rain , Thunderstorm Heavy Thunderstorms and Rain
9:32 PM 57.0 °F 50.0 °F 77% 29.83 in 6.0 mi SE 11.5 mph 32.2 mph 0.36 in Rain , Thunderstorm Thunderstorms and Rain
9:45 PM 55.9 °F 50.0 °F 80% 29.79 in 10.0 mi SE 13.8 mph 20.7 mph 0.37 in Rain Light Rain
9:53 PM 57.0 °F 50.0 °F 77% 29.67 in 10.0 mi East 15.0 mph - 0.37 in   Overcast
10:53 PM 57.0 °F 50.0 °F 77% 29.66 in 10.0 mi SE 10.4 mph - N/A   Clear
11:53 PM 59.0 °F 51.1 °F 75% 29.63 in 10.0 mi SSW 8.1 mph - N/A   Clear